ISS (ZARYA) 1 25544U 98067A 26176.18758125 .00009470 00000+0 17725-3 0 9993 2 25544 51.6326 260.4913 0004408 228.8642 131.1966 15.49415960572991 POISK 1 36086U 09060A 26176.18758125 .00009470 00000+0 17725-3 0 9991 2 36086 51.6326 260.4913 0004408 228.8642 131.1966 15.49415960571634 CSS (TIANHE) 1 48274U 21035A 26176.29434549 .00027694 00000+0 32098-3 0 9990 2 48274 41.4688 272.6527 0007845 146.8954 213.2378 15.61147711294432 ISS (NAUKA) 1 49044U 21066A 26176.18758125 .00009470 00000+0 17725-3 0 9999 2 49044 51.6326 260.4913 0004408 228.8642 131.1966 15.49415960571687 FREGAT DEB 1 49271U 11037PF 26174.72777939 .00007325 00000+0 12644-1 0 9990 2 49271 51.6248 342.2478 0899580 296.6074 54.5366 12.42164012225869 CSS (WENTIAN) 1 53239U 22085A 26176.29434549 .00027694 00000+0 32098-3 0 9993 2 53239 41.4688 272.6527 0007845 146.8954 213.2378 15.61147711288230 CSS (MENGTIAN) 1 54216U 22143A 26176.29434549 .00027694 00000+0 32098-3 0 9994 2 54216 41.4688 272.6527 0007845 146.8954 213.2378 15.61147711295133 HRC MONOBLOCK CAMERA 1 66052U 98067XR 26175.88116764 .00085202 00000+0 55772-3 0 9996 2 66052 51.6219 239.6204 0002527 340.3502 19.7399 15.75060235 39211 SZ-21 MODULE 1 66515U 25246C 26174.61333356 .00037843 00000+0 22797-3 0 9996 2 66515 41.4723 267.2876 0005343 38.8723 321.2505 15.76903759 34759 SOYUZ-MS 28 1 66664U 25275A 26176.18758125 .00009470 00000+0 17725-3 0 9992 2 66664 51.6326 260.4913 0004408 228.8642 131.1966 15.49415960571785 DUPLEX 1 66906U 98067XS 26175.46980201 .00035103 00000+0 38203-3 0 9998 2 66906 51.6257 252.6816 0002889 249.5701 110.4984 15.63084473 31798 ISS OBJECT XY 1 66912U 98067XY 26175.39600118 .00892798 44260-3 10639-2 0 9996 2 66912 51.6124 235.4534 0011866 351.1490 8.9312 16.07702904 32000 KNACKSAT-2 1 67683U 98067XZ 26175.45987298 .00042840 00000+0 51124-3 0 9996 2 67683 51.6280 257.8789 0008722 247.7542 112.2526 15.60565683 21412 CORAL 1 67684U 98067YA 26175.47995539 .00229578 00000+0 12158-2 0 9994 2 67684 51.6197 250.4504 0009277 299.2187 60.7886 15.79294894 21517 GXIBA-1 1 67685U 98067YB 26175.51835180 .00057449 00000+0 63771-3 0 9999 2 67685 51.6258 256.7626 0009560 246.3498 113.6493 15.62306517 21434 UITMSAT-2 1 67686U 98067YC 26175.45034009 .00072012 00000+0 69394-3 0 9994 2 67686 51.6254 255.5558 0004917 247.6729 112.3746 15.65840362 21446 LEOPARD 1 67687U 98067YD 26175.80313301 .00051258 00000+0 58475-3 0 9996 2 67687 51.6294 255.6808 0005518 233.1253 126.9236 15.61685419 21395 HMU-SAT2 1 67688U 98067YE 26175.51134085 .00066994 00000+0 69096-3 0 9999 2 67688 51.6273 255.9748 0005077 240.0294 120.0197 15.64159637 21360 CREW DRAGON 12 1 67796U 26031A 26176.18758125 .00009470 00000+0 17725-3 0 9990 2 67796 51.6326 260.4913 0004408 228.8642 131.1966 15.49415960625344 PROGRESS-MS 33 1 68319U 26058A 26176.18758125 .00009470 00000+0 17725-3 0 9991 2 68319 51.6326 260.4913 0004408 228.8642 131.1966 15.49415960571830 CYGNUS NG-24 1 68689U 26079A 26176.18758125 .00009470 00000+0 17725-3 0 9994 2 68689 51.6326 260.4913 0004408 228.8642 131.1966 15.49415960678535 PROGRESS-MS 34 1 68837U 26093A 26176.18758125 .00009470 00000+0 17725-3 0 9995 2 68837 51.6326 260.4913 0004408 228.8642 131.1966 15.49415960696260 TIANZHOU-10 1 69049U 26102A 26176.29434549 .00027694 00000+0 32098-3 0 9993 2 69049 41.4688 272.6527 0007845 146.8954 213.2378 15.61147711 7167 SHENZHOU-23 (SZ-23) 1 69180U 26113A 26176.29434549 .00027694 00000+0 32098-3 0 9991 2 69180 41.4688 272.6527 0007845 146.8954 213.2378 15.61147711294868